Regional Weather Roundup
Issued by NWS Grand Forks, ND

Home | Current Version | Previous Version | Text Only | Print | Product List | Glossary Off
Versions: 1 2 3 4 5 6 7 8 9 10 11 12 13 14 15 16 17 18 19 20 21 22 23 24 25 26 27 28 29 30 31 32 33 34 35 36 37 38 39 40 41 42 43 44 45 46 47 48 49 50

915
ASUS43 KFGF 261510
RWRFGF
PRAIRIE TO PINES  WEATHER ROUNDUP
NATIONAL WEATHER SERVICE EASTERN NORTH DAKOTA/GRAND FORKS ND
1000 AM CDT SUN MAR 26 2017

 **SATELLITE DATA USED TO AUGMENT SKY COVER AT AUTOMATED STATIONS**
 *****  WEATHER ACROSS EASTERN NORTH DAKOTA  *****

CITY           SKY/WX    TMP DP  RH WIND       PRES   REMARKS
GRAND FORKS    CLOUDY    36  34  92 SW5       29.96S
GRAND FRKS AFB CLOUDY    36  36 100 S8        29.95F
DEVILS LAKE    FAIR      37  33  85 E3        29.92F
FARGO          CLOUDY    36  36 100 SE6       29.97F FOG
WAHPETON ARPT    N/A     34  34 100 E3        29.98S
$$

 ***** WEATHER ACROSS CENTRAL AND WESTERN NORTH DAKOTA  *****

CITY           SKY/WX    TMP DP  RH WIND       PRES   REMARKS
BISMARCK       CLOUDY    41  36  82 S5        29.91F
MINOT          FAIR      46  36  68 CALM      29.90S
JAMESTOWN      PTSUNNY   36  36 100 SW6       29.91F
MINOT AFB      FAIR      38  35  86 CALM      29.90R
GARRISON         N/A     44  36  73 CALM      29.91S
WILLISTON      PTSUNNY   46  34  62 S6        29.90S
DICKINSON      FAIR      46  36  68 W9        29.91R
HETTINGER      CLOUDY    45  36  70 CALM      29.93R
$$

 *****  OTHER AIRPORT OBSERVATIONS IN OUR AREA  *****

CITY           SKY/WX    TMP DP  RH WIND       PRES   REMARKS
WALHALLA       NOT AVBL
GRAFTON AIRPOR PTSUNNY   34  34 100 S8        29.96F
VALLEY CITY AR CLOUDY    36  36 100 SW6       29.95S
CANDO          NOT AVBL
CAVALIER APRT    N/A     36  34  93 CALM      29.93S
GWINNER        CLOUDY    37  37 100 MISG      29.96S FOG
SHEYENNE NWR     N/A     36  36 100 SE6       29.95S
ROLLA          FAIR      39  37  93 N8        29.92R
 ***** THE ABOVE OBSERVATIONS ARE NON NWS ARE NOT QUALITY
       CONTROLLED AND MAY MIS-REPORT RAIN FOR SNOW...
$$

  *****  WEATHER ACROSS NORTHERN MINNESOTA  *****

CITY           SKY/WX    TMP DP  RH WIND       PRES   REMARKS
FLAG ISLAND    CLOUDY    32  30  93 S10       29.95F WCI  24
WARROAD        CLOUDY    36  30  80 S3        29.96S
ROSEAU         CLOUDY    36  30  80 S9        29.95F
HALLOCK        PTSUNNY   34  34 100 S9        29.94F FOG
THF RVR FALLS  CLOUDY    35  32  88 S7        29.98R
BAUDETTE       CLOUDY    36  31  82 S5        29.97S
WASKISH        CLOUDY    36  34  93 SE3       29.98S
CROOKSTON      FAIR      36  36 100 S8        29.97F FOG
GREENBUSH NDAW   N/A     36  34  93 SW8         N/A
$$
  *****  WEATHER ACROSS CENTRAL AND WEST MINNESOTA  *****

CITY           SKY/WX    TMP DP  RH WIND       PRES   REMARKS
FOSSTON        CLOUDY    34  30  86 S5        29.97S
BEMIDJI        CLOUDY    33  32  95 CALM      29.97F
PARK RAPIDS    CLOUDY    36  29  75 E3        29.96F
ELBOW LAKE     CLOUDY    36  33  89 E5        29.97S
WADENA         CLOUDY    34  30  86 CALM      29.96F
DETROIT LAKES  CLOUDY    36  32  87 SE3       29.98S
MOORHEAD       CLOUDY    34  34 100 CALM      29.99S
FERGUS FALLS   CLOUDY    36  32  87 CALM      30.01S
MORRIS MN      PTSUNNY   37  36  93 E3        29.95F
STAPLES        CLOUDY    34  30  86 NE3       29.97S
$$
  *****  WEATHER ELSEWHERE ACROSS MINNESOTA  *****

CITY           SKY/WX    TMP DP  RH WIND       PRES   REMARKS
DULUTH         LGT RAIN  33  32  96 E6        29.96F FOG
INTRNTL FALLS  CLOUDY    34  29  82 SE5       29.98F
ELY            CLOUDY    30  28  93 CALM      29.98F
CLOQUET        CLOUDY    34  30  86 NE5       29.97S FOG
WHEATON        CLOUDY    37  37 100 CALM      29.99S FOG
BRAINERD       MIX PCPN  33  32  96 NE3       29.98S FOG
HIBBING        CLOUDY    32  30  92 NE3       29.98F
ALEXANDRIA     CLOUDY    37  32  82 NE5       29.96F
SAINT CLOUD    CLOUDY    35  34  96 NE6       29.96S
MINNEAPOLIS    CLOUDY    38  34  85 NE7       29.94F
$$

  *****  WEATHER ACROSS SOUTH DAKOTA  *****

CITY           SKY/WX    TMP DP  RH WIND       PRES   REMARKS
SIOUX FALLS    CLOUDY    40  38  93 NE8       29.93S
BROOKINGS      CLOUDY    37  36  96 NE5       29.93S
WATERTOWN      CLOUDY    37  35  92 E5        29.93S
HURON          CLOUDY    39  37  92 E7        29.94S
SISSETON         N/A     37  37 100 N6        29.96S
ABERDEEN       CLOUDY    38  34  85 E5        29.96S
MITCHELL       CLOUDY    41  39  93 CALM      29.95R
PIERRE         CLOUDY    40  37  89 E7        29.92R
MOBRIDGE       CLOUDY    40  36  86 SW3       29.90F
RAPID CITY     PTSUNNY   40  37  89 N13       29.89R
$$

  *****  SOME WEATHER IN NEARBY STATES *****

CITY           SKY/WX    TMP DP  RH WIND       PRES   REMARKS
GLASGOW MT     FAIR      35  27  72 NW7       29.93R
GREAT FALLS MT FAIR      40  22  48 SW9       29.94R
CHEYENNE WY    CLOUDY    40  33  76 N12G23    29.88R
SCOTTSBLUFF NE CLOUDY    48  32  53 N12       29.87R
OMAHA NE       CLOUDY    42  38  85 N7        29.91R FOG
DES MOINES IA  CLOUDY    42  40  92 NW8       29.88R FOG
DAVENPORT IA   CLOUDY    52  52 100 S7        29.82S FOG
CHICAGO IL     CLOUDY    55  52  89 S9        29.84S FOG
EAU CLAIRE WI  CLOUDY    36  35  96 NE5       29.92F FOG
LA CROSSE WI   CLOUDY    40  38  93 NE6       29.90S FOG
$$

  *****  SOME NATIONAL WEATHER *****

CITY           SKY/WX    TMP DP  RH WIND       PRES   REMARKS
LA GUARDIA NY  CLOUDY    41  32  70 NE14      30.47R
RALEIGH NC     PTSUNNY   69  54  58 S9        30.26R
ATLANTA GA     FAIR      67  59  75 S14       30.13R
NEW ORLEANS LA PTSUNNY   74  69  85 S7        30.05R
OKLAHOMA CITY  PTSUNNY   55  46  71 SE14      29.87S
ALBUQUERQUE NM FAIR      45  30  55 W7        29.96R
SALT LAKE CITY FAIR      39  34  82 SE8       30.06R
LOS ANGELES CA PTSUNNY   57  54  89 E5        30.04S
BOISE ID       FAIR      44  27  51 SE14      29.94S
SEATTLE WA     LGT RAIN  45  38  76 SE7       29.85S
$$

*** WEATHER ACROSS MANITOBA...SASKATCHEWAN AND ONTARIO ***
                ***ONTARIO***

CITY           SKY/WX    TMP DP  RH WIND       PRES   REMARKS
GERALDTON      PTSUNNY   30  18  59 S6        30.06F WCI  24
THUNDER BAY    LGT RAIN  34  30  86 E10       30.04S
SIOUX LOOKOUT  CLOUDY    32  27  80 SW7       29.98S
TORONTO        CLOUDY    37  34  87 E13G22    30.18S
BIG TROUT LK   CLOUDY    32  21  64 S8        29.88S WCI  25
PICKLE LAKE    PTSUNNY   32  23  69 S10G18    29.95F WCI  24
DRYDEN         CLOUDY    32  30  93 SW8       29.97S WCI  25
KENORA         CLOUDY    32  30  93 S7        29.95S
$$
                *** MANITOBA***

CITY           SKY/WX    TMP DP  RH WIND       PRES   REMARKS
BRANDON        PTSUNNY   39  34  81 N7        29.94R
DAUPHIN        PTSUNNY   36  32  87 SE2       29.95R
ISLAND LAKE    CLOUDY    30  27  86 W14G21    29.86R WCI  20
PILOT MOUND      N/A     36  32  87 N3          N/A
THE PAS        CLOUDY    18  14  86 NW7       29.98R WCI   8
THOMPSON       CLOUDY    19  16  86 NW9       29.87R WCI   9
WINNIPEG       PTSUNNY   37  34  87 NW5       29.94S
LYNN LAKE      SUNNY     16  12  86 NW8       29.92R WCI   5
CHURCHILL      LGT SNOW  14  10  85 NE13      29.95S DRFTSNOWWCI   0
GILLAM         FRZ DRZL  28  27  93 NE9       29.74R WCI  20
$$
                ***SASKATCHEWAN***

CITY           SKY/WX    TMP DP  RH WIND       PRES   REMARKS
ESTEVAN        PTSUNNY   41  36  81 S5        29.90S
KINDERSLEY     FOG       27  25  93 NE10      29.83R VSB 1/8 WCI  17
LLOYDMINSTER   FOG       28  28 100 S10       29.86R VSB 1/2 WCI  19
PRINCE ALBERT  CLOUDY    28  27  93 E7        29.91S WCI  21
REGINA         PTSUNNY   39  34  81 SE7       29.87S
YORKTON        FOG       36  34  93 E9        29.89F VSB 1
N. BATTLEFORD  CLOUDY    32  32 100 SE10      29.89S WCI  24
LA RONGE       CLOUDY    19  16  86 NE3       29.97R
SASKATOON      CLOUDY    32  30  93 E14       29.89R WCI  22
SWIFT CURRENT  SUNNY     37  25  60 W16       29.84R
$$
NOTE: THESE ARE AUTOMATED STATIONS WITH LIMITED QUALITY CONTROL
      "FAIR" INDICATES FEW OR NO CLOUDS BELOW 12,000 FEET WITH NO
      SIGNIFICANT WEATHER AND/OR OBSTRUCTIONS TO VISIBILITY.
      SKY/WX - SKY CONDITION AND SIGNIFICANT WEATHER.
      TMP - AIR TEMPERATURE.    DP   - DEWPOINT TEMPERATURE.
      RH  - RELATIVE HUMIDITY.  PRES - PRESSURE.
      HX  - HEAT INDEX.         WCI  - WIND CHILL INDEX.
$




USA.gov is the U.S. government's official web portal to all federal, state and local government web resources and services.